[[{"header":{"parameterUnit":"m.s-1","parameterCategory":1,"la1":30.2991,"la2":30.254,"lo1":-89.0895,"lo2":-89.0444,"dy":0.0017,"dx":0.0017,"nx":28,"ny":28,"refTime":"2025-01-19T09:00:00:Z","depth":0,"parameterNumber":2,"parameterNumberName":"U-component_of_WINDS"},"data":[0,0,0,0,0,0,0,0,0,0,0,0,0,0,0,0,0,0,0,0,0,0,0,0,0,0,0,0,0,0,0,0,0,0,0,0,0,0,0,0,0,0,0,0,0,0,0,0,0,0,0,0,0,0,0,0,0,0,-2.2708,-2.2709,0,-2.278,-2.2781,-2.2781,-2.2716,-2.2713,-2.2711,-2.2708,-2.2783,-2.2787,-2.2791,0,0,0,0,0,0,0,0,0,0,0,0,0,-2.2515,-2.2519,-2.2708,-2.2709,-2.271,-2.278,-2.2781,-2.2782,-2.2716,-2.2713,-2.271,-2.2707,-2.2781,-2.2786,-2.2792,0,0,0,0,0,0,0,0,0,0,0,0,0,-2.2594,-2.252,-2.2708,-2.2686,-2.2685,-2.278,-2.2781,-2.2782,-2.2717,-2.2713,-2.2709,-2.2705,-2.2779,-2.2786,-2.2792,-2.2913,0,0,-2.2813,-2.2816,0,0,0,0,0,0,0,0,-2.2589,-2.2601,-2.2688,-2.2688,-2.2686,-2.2735,-2.274,-2.2826,-2.2718,-2.2705,-2.2708,-2.2703,-2.277,-2.2777,-2.2799,-2.2917,-2.292,-2.2813,-2.2818,-2.282,-2.2822,0,0,0,0,0,0,0,-2.2584,-2.2598,-2.2737,-2.269,-2.2688,-2.2672,-2.2679,-2.2756,-2.2759,-2.2706,-2.2701,-2.271,-2.2769,-2.2793,-2.2801,-2.2921,-2.2813,-2.2819,-2.2823,-2.2826,-2.314,-2.3144,0,0,0,0,0,0,-2.2581,-2.2593,-2.2734,-2.2739,-2.2627,-2.2679,-2.2686,-2.2723,-2.2758,-2.2759,-2.2714,-2.2707,-2.2784,-2.2793,-2.2803,-2.2947,-2.282,-2.2827,-2.283,-2.3136,-2.3141,-2.3146,0,0,0,0,0,0,-2.2577,-2.2594,-2.2731,-2.2665,-2.2681,-2.2686,-2.2728,-2.2727,-2.2751,-2.2764,-2.2764,-2.2738,-2.2781,-2.2794,-2.2886,-2.2948,-2.283,-2.2836,-2.3131,-2.3137,-2.3143,-2.3235,0,0,0,0,0,0,-2.2572,-2.2593,-2.264,-2.2666,-2.2685,-2.2814,-2.2732,-2.2731,-2.2763,-2.2755,-2.2787,-2.2788,-2.2779,-2.2876,-2.2893,-2.2955,-2.2841,-2.3125,-2.3133,-2.3141,-2.3227,-2.3244,-2.3259,0,0,0,0,0,-2.2565,-2.2663,-2.2642,-2.266,-2.2743,-2.2818,-2.2828,-2.2815,-2.2768,-2.2815,-2.2822,-2.2787,-2.2938,-2.2886,-2.2904,-2.297,-2.3121,-2.3131,-2.3141,-2.322,-2.3241,-2.3259,0,0,0,0,0,0,-2.2645,-2.2666,-2.2643,-2.2753,-2.2784,-2.2806,-2.2865,-2.2838,-2.2883,-2.2874,-2.2855,-2.2863,-2.296,-2.2974,-2.2916,-2.3088,-2.3022,-2.3036,-2.3076,-2.3096,-2.3112,-2.3108,-2.2846,0,0,0,0,0,-2.2675,-2.2733,-2.2749,-2.2844,-2.2861,-2.286,-2.2892,-2.2879,-2.291,-2.2923,-2.2938,-2.297,-2.3024,-2.306,-2.3111,-2.3227,-2.3233,-2.3281,-2.3297,-2.331,-2.3323,-2.3385,-2.3406,-2.3178,-2.3177,-2.3177,0,0,-2.2738,-2.2757,-2.2795,-2.2861,-2.2883,-2.2944,-2.2872,-2.294,-2.2985,-2.2934,-2.3022,-2.3033,-2.3067,-2.3172,-2.3219,-2.3187,-2.3387,-2.3323,-2.3333,-2.3339,-2.3397,-2.3418,-2.3438,-2.3184,-2.3183,-2.3182,0,0,-2.2885,-2.2905,-2.2986,-2.3009,-2.3044,-2.3042,-2.3062,-2.3088,-2.3093,-2.3181,-2.3144,-2.3196,-2.3291,-2.3316,-2.3342,-2.3495,-2.3465,-2.3512,-2.3597,-2.3658,-2.3676,-2.3692,-2.3747,-2.3767,-2.3524,-2.3525,-2.3525,0,-2.296,-2.305,-2.3032,-2.3102,-2.3132,-2.3086,-2.3168,-2.3192,-2.3241,-2.3263,-2.3225,-2.3341,-2.3361,-2.3471,-2.3508,-2.353,-2.3551,-2.351,-2.3674,-2.369,-2.3705,-2.3757,-2.3778,-2.353,-2.353,-2.3529,-2.3529,0,-2.314,-2.3204,-2.3265,-2.3313,-2.3349,-2.3425,-2.3418,-2.3456,-2.3439,-2.3441,-2.3531,-2.3552,-2.3606,-2.3631,-2.3615,-2.3738,-2.3717,-2.3677,-2.3611,-2.3733,-2.3781,-2.3801,-2.3538,-2.3536,-2.3535,-2.3533,0,0,-2.3342,-2.3377,-2.34,-2.3421,-2.3454,-2.3502,-2.3575,-2.3627,-2.3661,-2.3695,-2.3756,-2.3836,-2.3799,-2.3828,-2.3814,-2.3866,-2.3986,-2.382,-2.3821,-2.3851,-2.4123,-2.4154,-2.4177,-2.3965,-2.3969,-2.3972,-2.412,0,-2.3491,-2.3618,-2.3602,-2.3724,-2.3782,-2.3738,-2.3802,-2.3829,-2.3832,-2.3881,-2.3884,-2.3941,-2.3888,-2.3905,-2.3955,-2.3961,-2.4041,-2.395,-2.4022,-2.4025,-2.4017,-2.4203,-2.4236,-2.4375,-2.4139,-2.4143,-2.4145,0,-2.3682,-2.3723,-2.385,-2.3873,-2.3897,-2.3954,-2.4,-2.4047,-2.4076,-2.4075,-2.4106,-2.4082,-2.4154,-2.4085,-2.4184,-2.4123,-2.4151,-2.4158,-2.4163,-2.4171,-2.4094,-2.4217,-2.4419,-2.4441,-2.4175,-2.4172,-2.417,0,-2.3818,-2.3904,-2.3991,-2.401,-2.4039,-2.408,-2.4094,-2.4118,-2.415,-2.4189,-2.421,-2.4257,-2.4284,-2.4321,-2.431,-2.426,-2.4412,-2.4341,-2.4413,-2.4413,-2.4449,-2.4447,-2.466,-2.4464,-2.4464,-2.4464,-2.4463,0,-2.3987,-2.4067,-2.4052,-2.4106,-2.4194,-2.4174,-2.4261,-2.4269,-2.4292,-2.4346,-2.431,-2.4362,-2.4343,-2.4394,-2.4385,-2.4469,-2.4481,-2.4482,-2.4479,-2.4486,-2.4486,-2.4506,-2.4496,-2.4469,-2.4468,-2.4467,-2.4466,0,-2.4154,-2.4148,-2.424,-2.4258,-2.4265,-2.4329,-2.4344,-2.4395,-2.4393,-2.4463,-2.4478,-2.4477,-2.4534,-2.4526,-2.459,-2.4584,-2.4688,-2.4673,-2.4679,-2.4676,-2.4748,-2.4742,-2.4982,-2.5013,-2.4797,-2.4799,-2.48,0,-2.4263,-2.4323,-2.4348,-2.4381,-2.4398,-2.4452,-2.4484,-2.4466,-2.45,-2.4536,-2.4582,-2.4636,-2.4678,-2.4771,-2.4776,-2.4824,-2.4811,-2.4891,-2.4818,-2.4823,-2.4813,-2.481,-2.4816,-2.4907,-2.4909,-2.4911,-2.4913,0,-2.4458,-2.4451,-2.4498,-2.4544,-2.4582,-2.4617,-2.4649,-2.4678,-2.4662,-2.4703,-2.476,-2.4793,-2.4857,-2.4911,-2.4956,-2.4969,-2.4939,-2.4935,-2.4955,-2.4963,-2.4965,-2.4965,-2.472,-2.4931,-2.4929,-2.4928,-2.4927,-2.4926,-2.46,-2.4651,-2.4676,-2.4729,-2.475,-2.478,-2.4828,-2.4832,-2.488,-2.4931,-2.4916,-2.4982,-2.5007,-2.5063,-2.5081,-2.5132,-2.5102,-2.513,-2.5137,-2.5145,-2.5154,-2.4955,-2.514,-2.5139,-2.5139,-2.5138,-2.5138,0,-2.4793,-2.4806,-2.4855,-2.49,-2.4941,-2.4907,-2.4939,-2.4977,-2.5034,-2.506,-2.5102,-2.5167,-2.5218,-2.5226,-2.5275,-2.5313,-2.5301,-2.5327,-2.5325,-2.5328,-2.5177,-2.5156,-2.5336,-2.5336,-2.5336,-2.5336,-2.5336,-2.5336,-2.4899,-2.4983,-2.4979,-2.5073,-2.5085,-2.5149,-2.517,-2.5197,-2.5217,-2.5292,-2.5334,-2.5338,-2.5357,-2.5406,-2.5451,-2.5452,-2.5472,-2.5504,-2.5499,-2.5359,-2.5339,-2.532,-2.53,-2.5508,-2.5508,-2.5646,-2.5647,-2.5648]},{"header":{"parameterUnit":"m.s-1","parameterCategory":1,"la1":30.2991,"la2":30.254,"lo1":-89.0895,"lo2":-89.0444,"dy":0.0017,"dx":0.0017,"nx":28,"ny":28,"refTime":"2025-01-19T09:00:00:Z","depth":0,"parameterNumber":3,"parameterNumberName":"V-component_of_WINDS"},"data":[0,0,0,0,0,0,0,0,0,0,0,0,0,0,0,0,0,0,0,0,0,0,0,0,0,0,0,0,0,0,0,0,0,0,0,0,0,0,0,0,0,0,0,0,0,0,0,0,0,0,0,0,0,0,0,0,0,0,-7.3761,-7.3763,0,-7.391,-7.3912,-7.3913,-7.3828,-7.3824,-7.382,-7.3816,-7.3963,-7.397,-7.3978,0,0,0,0,0,0,0,0,0,0,0,0,0,-7.3396,-7.3404,-7.3761,-7.3763,-7.3765,-7.391,-7.3912,-7.3914,-7.3829,-7.3824,-7.3819,-7.3814,-7.396,-7.397,-7.3979,0,0,0,0,0,0,0,0,0,0,0,0,0,-7.3551,-7.3406,-7.3761,-7.374,-7.374,-7.3909,-7.3912,-7.3914,-7.383,-7.3823,-7.3817,-7.3811,-7.3957,-7.3969,-7.398,-7.4177,0,0,-7.4016,-7.4021,0,0,0,0,0,0,0,0,-7.3542,-7.3564,-7.3741,-7.3742,-7.3742,-7.3844,-7.3837,-7.4002,-7.3831,-7.3795,-7.3816,-7.3808,-7.3928,-7.3942,-7.3983,-7.4184,-7.419,-7.4017,-7.4024,-7.4029,-7.4032,0,0,0,0,0,0,0,-7.3532,-7.3557,-7.382,-7.3744,-7.3744,-7.3721,-7.3736,-7.3868,-7.3895,-7.3798,-7.3792,-7.3811,-7.3927,-7.3972,-7.3986,-7.4193,-7.4017,-7.4027,-7.4034,-7.4039,-7.456,-7.4566,0,0,0,0,0,0,-7.3523,-7.3549,-7.3815,-7.3824,-7.3625,-7.3733,-7.3749,-7.3817,-7.3893,-7.3899,-7.3816,-7.3807,-7.3955,-7.3973,-7.3991,-7.4225,-7.4029,-7.404,-7.4047,-7.4553,-7.4561,-7.4569,0,0,0,0,0,0,-7.3516,-7.3548,-7.3809,-7.3685,-7.3717,-7.3746,-7.3823,-7.3824,-7.3869,-7.3907,-7.3911,-7.3858,-7.3951,-7.3974,-7.4131,-7.4229,-7.4045,-7.4056,-7.4545,-7.4556,-7.4565,-7.4697,0,0,0,0,0,0,-7.3506,-7.3546,-7.3623,-7.3688,-7.3724,-7.395,-7.3829,-7.3831,-7.389,-7.3879,-7.3947,-7.3953,-7.3948,-7.4114,-7.4143,-7.4242,-7.4065,-7.4536,-7.455,-7.4562,-7.4684,-7.471,-7.4733,0,0,0,0,0,-7.3493,-7.3653,-7.3627,-7.366,-7.3821,-7.3955,-7.3976,-7.3969,-7.3898,-7.3975,-7.3999,-7.395,-7.4214,-7.4131,-7.4163,-7.4267,-7.453,-7.4546,-7.4561,-7.4673,-7.4705,-7.4732,0,0,0,0,0,0,-7.3598,-7.3661,-7.3633,-7.382,-7.3883,-7.3941,-7.4037,-7.4003,-7.4087,-7.4073,-7.4058,-7.4074,-7.4238,-7.4268,-7.4174,-7.446,-7.4361,-7.4383,-7.4435,-7.4466,-7.449,-7.4479,-7.4075,0,0,0,0,0,-7.3643,-7.3749,-7.3798,-7.3957,-7.3991,-7.4009,-7.4067,-7.4056,-7.412,-7.4146,-7.4182,-7.4245,-7.4341,-7.4405,-7.4496,-7.4687,-7.47,-7.4774,-7.4798,-7.4818,-7.4838,-7.4939,-7.4972,-7.4619,-7.4619,-7.4619,0,0,-7.3736,-7.3784,-7.3852,-7.398,-7.4027,-7.4135,-7.4032,-7.4151,-7.423,-7.4164,-7.4314,-7.4343,-7.4411,-7.4586,-7.4664,-7.4616,-7.4938,-7.4838,-7.4854,-7.4862,-7.4958,-7.4992,-7.5022,-7.4629,-7.4628,-7.4626,0,0,-7.3962,-7.401,-7.4148,-7.4197,-7.4271,-7.4282,-7.4315,-7.4378,-7.4395,-7.4546,-7.4498,-7.459,-7.4758,-7.4808,-7.4856,-7.5098,-7.5056,-7.5128,-7.5257,-7.5355,-7.5383,-7.5408,-7.5493,-7.5524,-7.5147,-7.5148,-7.5148,0,-7.4069,-7.4232,-7.4222,-7.4345,-7.4401,-7.4347,-7.4485,-7.4533,-7.4633,-7.4672,-7.4616,-7.4824,-7.4866,-7.5051,-7.511,-7.5151,-7.5186,-7.5121,-7.538,-7.5405,-7.5428,-7.5509,-7.5541,-7.5156,-7.5155,-7.5154,-7.5153,0,-7.4359,-7.4472,-7.4574,-7.4672,-7.474,-7.487,-7.4877,-7.4947,-7.4929,-7.4945,-7.5098,-7.5147,-7.5246,-7.5289,-7.5273,-7.5471,-7.5438,-7.5382,-7.5282,-7.547,-7.5546,-7.5577,-7.5168,-7.5165,-7.5162,-7.516,0,0,-7.4656,-7.4747,-7.4784,-7.4828,-7.4904,-7.4991,-7.5116,-7.5215,-7.5274,-7.5343,-7.5447,-7.5589,-7.5537,-7.5591,-7.5579,-7.5666,-7.5853,-7.5598,-7.56,-7.5643,-7.6073,-7.6115,-7.6151,-7.5826,-7.5832,-7.5836,-7.6067,0,-7.4886,-7.5109,-7.5102,-7.5308,-7.5411,-7.536,-7.5469,-7.5527,-7.5544,-7.5632,-7.565,-7.5751,-7.5675,-7.5707,-7.5791,-7.5813,-7.5939,-7.5796,-7.592,-7.5925,-7.5905,-7.6191,-7.6236,-7.6452,-7.6097,-7.6102,-7.6105,0,-7.5185,-7.5266,-7.5483,-7.5543,-7.5585,-7.5684,-7.5773,-7.5859,-7.5921,-7.5927,-7.5987,-7.5961,-7.6086,-7.5982,-7.6152,-7.6055,-7.6105,-7.6123,-7.6131,-7.6143,-7.6027,-7.621,-7.6521,-7.6553,-7.6152,-7.6148,-7.6145,0,-7.538,-7.5542,-7.5693,-7.5731,-7.5805,-7.5875,-7.5909,-7.5965,-7.6024,-7.6101,-7.6138,-7.6228,-7.6277,-7.6346,-7.6343,-7.6268,-7.6515,-7.6412,-7.6522,-7.6523,-7.6577,-7.6574,-7.69,-7.661,-7.661,-7.6609,-7.6608,0,-7.5638,-7.5772,-7.5781,-7.5873,-7.6021,-7.6011,-7.6157,-7.6183,-7.6234,-7.6328,-7.6289,-7.6378,-7.637,-7.6459,-7.6457,-7.6598,-7.662,-7.6627,-7.6625,-7.6631,-7.663,-7.6663,-7.6648,-7.6617,-7.6616,-7.6614,-7.6612,0,-7.588,-7.5892,-7.6052,-7.6108,-7.6126,-7.6232,-7.6279,-7.6365,-7.6378,-7.6499,-7.6526,-7.6546,-7.6649,-7.6654,-7.6772,-7.677,-7.6941,-7.6922,-7.6921,-7.6917,-7.7027,-7.7017,-7.7386,-7.7434,-7.7113,-7.7116,-7.7119,0,-7.6044,-7.6146,-7.6214,-7.6275,-7.6313,-7.6413,-7.6472,-7.6465,-7.6529,-7.6607,-7.6684,-7.6783,-7.6862,-7.7028,-7.7052,-7.7141,-7.7124,-7.7247,-7.7137,-7.7139,-7.7125,-7.7119,-7.7128,-7.7269,-7.7273,-7.7275,-7.7278,0,-7.6334,-7.6334,-7.6423,-7.6514,-7.6587,-7.6658,-7.6723,-7.6775,-7.6775,-7.6848,-7.6954,-7.7015,-7.7136,-7.7234,-7.7321,-7.7352,-7.7315,-7.7312,-7.7342,-7.7349,-7.7344,-7.7347,-7.6979,-7.7304,-7.7301,-7.7299,-7.7298,-7.7297,-7.6541,-7.6629,-7.669,-7.679,-7.6839,-7.6901,-7.6984,-7.7008,-7.7096,-7.7195,-7.7185,-7.7301,-7.7358,-7.7471,-7.751,-7.7599,-7.7556,-7.76,-7.7611,-7.7622,-7.7634,-7.733,-7.7615,-7.7614,-7.7613,-7.7613,-7.7612,0,-7.6828,-7.6864,-7.6956,-7.705,-7.7128,-7.7087,-7.7157,-7.7224,-7.7328,-7.7386,-7.7464,-7.7584,-7.7679,-7.771,-7.7801,-7.7866,-7.7851,-7.789,-7.7885,-7.7893,-7.7667,-7.7632,-7.7901,-7.7901,-7.7901,-7.79,-7.79,-7.79,-7.6986,-7.7132,-7.714,-7.7308,-7.7343,-7.7458,-7.7501,-7.7557,-7.7603,-7.7739,-7.7818,-7.7838,-7.7884,-7.7978,-7.8062,-7.8068,-7.8103,-7.8149,-7.8149,-7.7938,-7.7909,-7.7881,-7.7848,-7.8157,-7.8158,-7.8366,-7.8368,-7.837]}]]